Hourly Weather Roundup
Issued by NWS Central Illinois

Home | Current Version | Previous Version | Text Only | Print | Product List | Glossary On
Versions: 1 2 3 4 5 6 7 8 9 10 11 12 13 14 15 16 17 18 19 20 21 22 23 24 25 26 27 28 29 30 31 32 33 34 35 36 37 38 39 40 41 42 43 44 45 46 47 48 49 50
776
NZUS43 KILX 242210
HWRILX

Area Weather Roundup
National Weather Service Lincoln IL
400 PM CST FRI NOV 24 2017

NOTE:  "FAIR" indicates few or no clouds below 12,000 feet, with
       no sigificant weather and/or obstructions to visibility.


CITY           SKY/WX    TMP DP  RH WIND       PRES   REMARKS
Bloomington    CLEAR     59  41  51 S22       29.56R
Champaign      CLEAR     57  38  48 S24G30    29.61F
Danville       CLEAR     55  37  50 S17       29.61F
Decatur        CLEAR     61  40  45 S17G25    29.60F
Effingham      CLEAR     60  37  41 SE13G18   29.69F
Flora          CLEAR     60  37  41 S16       29.71F
Galesburg      CLEAR     68  42  38 S17G24    29.48R
Jacksonville   CLEAR     68  38  32 MISG      29.55S
Lacon          CLEAR     64  39  39 S15G22    29.47S
Lawrenceville  CLEAR     57  37  47 S14       29.75F
Litchfield     CLEAR     61  41  46 S17       29.63R
$$


CITY           SKY/WX    TMP DP  RH WIND       PRES   REMARKS
Lincoln        CLEAR     63  43  47 S15G22    29.56S
Macomb         CLEAR     69  38  31 SW21G28   29.50S
Mattoon        CLEAR     57  37  47 S14G25    29.64F
Mt Carmel AP   CLEAR     58  33  39 S13       29.74S
Olney-Noble AP CLEAR     59  31  34 S13       29.73S
Paris AP       CLEAR     55  37  52 S18       29.67F
Peoria         CLEAR     65  39  38 S17G28    29.50F
Pontiac        CLEAR     62  40  45 S25G32    29.53S
Rantoul        CLEAR     58  41  54 S17G23    29.61S
Robinson       CLEAR     55  35  45 S10       29.73F
Springfield    CLEAR     65  41  41 S17       29.57S
Taylorville    CLEAR     61  40  46 S18       29.60F
$$

...REGIONAL REPORTS...


CITY           SKY/WX    TMP DP  RH WIND       PRES   REMARKS
Chicago O`Hare PTCLDY    61  38  42 S21G33    29.45F
Kankakee       CLEAR     56  39  53 S21G26    29.55F
Moline         CLEAR     70  38  31 SW15G22   29.42R
Mount Sterling CLEAR     70  37  30 SW16G28   29.51F
Mount Vernon   CLEAR     60  36  40 S12       29.72F
Pittsfield     CLEAR     71  38  29 S16       29.55F
Quincy         CLEAR     70  37  29 SW18G30   29.51S
Rockford       PTCLDY    59  40  49 S15       29.42F
$$


CITY           SKY/WX    TMP DP  RH WIND       PRES   REMARKS
Burlington     CLOUDY    70  40  33 SW15      29.47R
Cedar Rapids   CLEAR     66  41  40 W23G31    29.46R
Des Moines     PTCLDY    66  41  40 NW15G25   29.55R
Kirksville     CLEAR     71  40  32 W10G20    29.54R
Ottumwa        CLEAR     69  41  36 W14       29.50R
St Louis       PTCLDY    71  35  26 S17G25    29.63S
$$


CITY           SKY/WX    TMP DP  RH WIND       PRES   REMARKS
Terre Haute    CLEAR     56  33  42 S18       29.72F
Evansville     CLEAR     59  33  37 MISG      29.79F
Indianapolis   PTCLDY    56  32  40 S14       29.73F
Lafayette      CLEAR     55  36  48 S10G21    29.64F
Madison        PTCLDY    63  39  41 SW8       29.37R
Milwaukee      PTCLDY    63  39  41 SW23G31   29.37F
$$






USA.gov is the U.S. government's official web portal to all federal, state and local government web resources and services.